Regional Weather Roundup
Issued by NWS Boston, MA

Home | Current Version | Previous Version | Text Only | Print | Product List | Glossary On
Versions: 1 2 3 4 5 6 7 8 9 10 11 12 13 14 15 16 17 18 19 20 21 22 23 24 25 26 27 28 29 30 31 32 33 34 35 36 37 38 39 40 41 42 43 44 45 46 47 48 49 50
034
ASUS41 KBOX 190810
RWRBOX

REGIONAL WEATHER ROUNDUP
NATIONAL WEATHER SERVICE TAUNTON MA
300 AM EST THU JAN 19 2017

NOTE:  "FAIR" INDICATES FEW OR NO CLOUDS BELOW 12,000 FEET WITH NO
SIGNIFICANT WEATHER AND/OR OBSTRUCTIONS TO VISIBILITY.

MAZALL-190900-
EASTERN MASSACHUSETTS

CITY           SKY/WX    TMP DP  RH WIND       PRES   REMARKS
BOSTON         CLOUDY    32  30  92 NW8       30.02S WCI  25
BEVERLY        CLOUDY    31  30  96 NW6       30.01R WCI  25
LAWRENCE       CLOUDY    30  29  96 CALM      30.03S
BEDFORD        CLOUDY    31  28  89 NW5       30.01R WCI  26
BLUE HILL        N/A     29  29 100 NW9       29.97S WCI  20
NORWOOD        CLOUDY    33  32  96 CALM      30.02R
MARSHFIELD     CLOUDY    36  34  93 VRB5      30.00R WCI  32
PLYMOUTH       CLOUDY    34  33  96 W3        30.00S
TAUNTON        CLOUDY    34  32  92 NW3       30.00S FOG
NEW BEDFORD    CLOUDY    36  34  92 CALM      29.99S FOG
$$

MAZALL-190900-
CAPE COD AND THE ISLANDS

CITY           SKY/WX    TMP DP  RH WIND       PRES   REMARKS
FALMOUTH         N/A     37  37 100 MISG      29.99F
HYANNIS        CLOUDY    39  37  92 N5        29.97S
CHATHAM        CLOUDY    41  39  93 CALM      29.98F FOG
PROVINCETOWN   CLOUDY    40  36  86 CALM      29.98F
NANTUCKET      CLOUDY    41  38  89 N6        29.97S FOG
MARTHAS VNYRD  CLOUDY    39  37  92 N6        29.98  FOG
$$

MAZALL-190900-
CENTRAL AND WESTERN MASSACHUSETTS

CITY           SKY/WX    TMP DP  RH WIND       PRES   REMARKS
WORCESTER      CLOUDY    30  29  96 CALM      29.96F FOG
FITCHBURG      CLOUDY    32  30  92 CALM      30.00F
ORANGE         CLOUDY    31  31 100 CALM      29.99F
SPRINGFIELD    CLOUDY    33  32  95 CALM      30.00S
WESTFIELD      CLOUDY    32  32 100 CALM      30.00F FOG
NORTH ADAMS    CLOUDY    33  32  96 W6        29.98F FOG     WCI  28
$$

RIZALL-190900-
RHODE ISLAND

CITY           SKY/WX    TMP DP  RH WIND       PRES   REMARKS
PROVIDENCE     CLOUDY    34  32  92 N6        30.02R WCI  29
NEWPORT        CLOUDY    35  35 100 N7        29.99F WCI  29
SMITHFIELD     CLOUDY   N/A N/A N/A NW5       30.00R FOG
WESTERLY       CLOUDY    37  33  85 N6        30.01S
$$

CTZALL-190900-
CONNECTICUT

CITY           SKY/WX    TMP DP  RH WIND       PRES   REMARKS
BRADLEY INTL   CLOUDY    33  32  96 W3        30.01F
HARTFORD       CLOUDY    35  33  92 CALM      30.03S
BRIDGEPORT     CLOUDY    39  34  82 CALM      30.02S
DANBURY        CLOUDY    33  32  96 CALM      30.02S FOG
GROTON         CLOUDY    37  34  89 N9        30.01R WCI  30
NEW HAVEN      CLOUDY    37  34  89 N3        30.02S
CHESTER        CLOUDY    36  34  93 CALM      30.01S
MERIDEN        CLOUDY    34  32  92 CALM      30.03S
WILLIMANTIC    CLOUDY    36  35  96 CALM      30.02S FOG
OXFORD         CLOUDY    34  30  86 CALM      30.01S
$$

MEZ002-015-021-024-NHZ003-005-008-011-012-014-VTZ005-008-190900-
NORTHERN NEW ENGLAND

CITY           SKY/WX    TMP DP  RH WIND       PRES   REMARKS
PORTLAND ME    LGT SNOW  25  22  88 N6        30.01F FOG     WCI  18
BANGOR ME      LGT SNOW  23  22  96 CALM      30.01F FOG
CONCORD NH     CLOUDY    29  26  89 CALM      30.00F FOG
MANCHESTER NH  NOT AVBL
NASHUA NH      NOT AVBL
PORTSMOUTH NH  CLOUDY    28  25  89 N5        30.00F WCI  23
JAFFREY NH     NOT AVBL
KEENE NH       NOT AVBL
BURLINGTON VT  CLOUDY    36  34  92 S6        29.93F WCI  31
MT. WASHINGTON DRFTSNOW  16  16 100 W39         N/A  VSB 1/16WCI  -7
$$

NYZ052-076-190900-
EASTERN NEW YORK

CITY           SKY/WX    TMP DP  RH WIND       PRES   REMARKS
ALBANY         CLOUDY    35  34  96 S3        30.01S FOG
NEW YORK CITY  MOCLDY    42  36  79 NW3       30.02F
$$

ANZALL-190900-
MARINE OBSERVATIONS

STATION/POSITION TIME  TEMP    WIND        PRES    VSBY  WAVE
                       AIR SEA DIR/SP/G                  HT/PER
                 (UTC) (F)     (DEG/KT/KT) (MB)    (MI)  (FT/S)
BOSTON BUOY      0650   37 45  360/ 12/ 16 1014.8          7/ 8
BUZZARDS BAY     0700   37     360/ 12/ 13 1016.1R
NANTUCKET SOUND  0650   41 41  340/ 12/ 14 1015.0          1/ 5
MASS BAY-STELLWA 0704   37 44  360/ 12/ 12 1014.9F  1 7/8  8/ 8
ISLE OF SHOALS   0700   31     360/ 12/ 13 1016.0F
S OF BLOCK IS    0755      47                N/A           6/10
$$

......................KEY.........................
  SKY/WX - SKY CONDITION/PRESENT WEATHER
  TMP    - TEMPERATURE IN FAHRENHEIT
  DWPT   - DEWPOINT IN FAHRENHEIT
  RH     - RELATIVE HUMIDITY IN PERCENT
  WIND   - DIRECTION AND SPEED IN MPH
  PRES   - MEAN SEA LEVEL PRESSURE IN INCHES OF HG
  WCI    - WIND CHILL INDEX
  VSB    - VISIBILITY IN MILES
  HX     - HEAT INDEX
  TC     - TEMPERATURE IN CELSIUS
  VRB    - VARIABLE WIND DIRECTION
  N/A    - NOT AVAILABLE




USA.gov is the U.S. government's official web portal to all federal, state and local government web resources and services.